Roanoke, VA

7:09 PM EST on February 27, 2017 (GMT -0500)
Roanoke Regional-Woodrum

Weather History for KROA - June, 2014

Change the Weather History Date:

Monday, June 30, 2014

  Actual Average Record
Temperature  
Mean Temperature 74 °F 76 °F  
Max Temperature 85 °F 86 °F 104 °F (1936)
Min Temperature 63 °F 65 °F 50 °F (1919)
Degree Days  
Heating Degree Days 0 0  
Month to date heating degree days 0 9  
Since 1 June heating degree days 0 11  
Since 1 July heating degree days 4366 4144  
Cooling Degree Days 9 11  
Month to date cooling degree days 297 246  
Year to date cooling degree days 446 362  
Since 1 June cooling degree days 297 246  
Growing Degree Days 24 (Base 50)    
Moisture  
Dew Point 65 °F    
Average Humidity 74    
Maximum Humidity 93    
Minimum Humidity 55    
Precipitation  
Precipitation T in 0.12 in 1.25 in (1984)
Month to date precipitation 3.05 3.83  
Year to date precipitation 18.65 20.53  
Snow  
Snow 0.00 in - - ()
Month to date snowfall 0.0  
Since 1 June snowfall 0.0  
Since 1 July snowfall 28.0  
Snow Depth 0.00 in    
Sea Level Pressure  
Sea Level Pressure 30.06 in    
Wind  
Wind Speed 3 mph (WSW)    
Max Wind Speed 10 mph    
Max Gust Speed 15 mph    
Visibility 10 miles    
Events      
T = Trace of Precipitation, MM = Missing Value Source: NWS Daily Summary

Daily Weather History Graph

Daily Weather History Graph

Search for Another Location

Airport or City:

Trip Planner

Search our weather history database for the weather conditions in past years. The results will help you decide how hot, cold, wet, or windy it might be!

Date:

Astronomy

Jun. 30, 2014 Rise Set
Actual Time 6:02 AM EDT 8:44 PM EDT
Civil Twilight 5:31 AM EDT 9:15 PM EDT
Nautical Twilight 4:53 AM EDT 9:54 PM EDT
Astronomical Twilight 4:09 AM EDT 10:37 PM EDT
Moon 9:09 AM EDT (6/30) 10:41 PM EDT (6/30)
Length of Visible Light 15h 43m
Length of Day
14h 41m
Waxing Crescent, 10% of the Moon is Illuminated
Jun 30
Waxing Crescent
Jul 5
First Quarter
Jul 12
Full
Jul 18
Last Quarter
Jul 26
New

Hourly Weather History & Observations

Time (EDT) Temp. Heat Index Dew Point Humidity Pressure Visibility Wind Dir Wind Speed Gust Speed Precip Events Conditions
12:54 AM 66.9 °F - 61.0 °F 81% 30.14 in 10.0 mi NNE 3.5 mph - N/A   Clear
1:54 AM 66.0 °F - 62.1 °F 87% 30.13 in 10.0 mi NNE 3.5 mph - N/A   Clear
2:54 AM 64.0 °F - 61.0 °F 90% 30.12 in 10.0 mi Calm Calm - N/A   Clear
3:54 AM 63.0 °F - 60.1 °F 90% 30.10 in 10.0 mi Calm Calm - N/A   Clear
4:54 AM 64.9 °F - 61.0 °F 87% 30.10 in 10.0 mi ENE 3.5 mph - N/A   Overcast
5:54 AM 64.9 °F - 61.0 °F 87% 30.12 in 10.0 mi Calm Calm - N/A   Overcast
6:54 AM 64.0 °F - 61.0 °F 90% 30.14 in 10.0 mi Calm Calm - N/A   Mostly Cloudy
7:54 AM 66.9 °F - 61.0 °F 81% 30.14 in 10.0 mi Calm Calm - N/A   Mostly Cloudy
8:54 AM 71.1 °F - 61.0 °F 70% 30.13 in 10.0 mi Calm Calm - N/A   Mostly Cloudy
9:54 AM 75.0 °F - 62.1 °F 64% 30.11 in 10.0 mi Calm Calm - N/A   Mostly Cloudy
10:54 AM 77.0 °F - 64.0 °F 64% 30.09 in 10.0 mi SSE 3.5 mph - N/A   Mostly Cloudy
11:54 AM 81.0 °F 82.5 °F 64.0 °F 56% 30.08 in 10.0 mi SSW 5.8 mph - N/A   Mostly Cloudy
12:54 PM 81.0 °F 82.7 °F 64.9 °F 58% 30.05 in 10.0 mi ESE 5.8 mph - N/A   Mostly Cloudy
1:54 PM 82.9 °F 84.6 °F 64.9 °F 54% 30.04 in 10.0 mi Variable 4.6 mph - N/A   Mostly Cloudy
2:54 PM 82.9 °F 84.4 °F 64.0 °F 53% 30.02 in 10.0 mi SSW 9.2 mph - N/A   Overcast
3:54 PM 84.0 °F 86.3 °F 66.0 °F 55% 30.01 in 10.0 mi Calm Calm - 0.00 in   Mostly Cloudy
4:54 PM 82.0 °F 84.9 °F 68.0 °F 62% 29.99 in 10.0 mi West 9.2 mph - N/A   Mostly Cloudy
5:54 PM 82.0 °F 85.9 °F 70.0 °F 67% 29.98 in 10.0 mi West 5.8 mph - N/A   Mostly Cloudy
6:54 PM 81.0 °F 84.1 °F 69.1 °F 67% 29.98 in 10.0 mi West 4.6 mph - N/A   Mostly Cloudy
7:54 PM 80.1 °F 82.7 °F 68.0 °F 67% 29.97 in 10.0 mi WSW 4.6 mph - N/A   Mostly Cloudy
8:54 PM 78.1 °F - 69.1 °F 74% 29.97 in 10.0 mi Calm Calm - N/A   Mostly Cloudy
9:54 PM 75.9 °F - 70.0 °F 82% 29.99 in 10.0 mi Calm Calm - N/A   Scattered Clouds
10:54 PM 73.9 °F - 70.0 °F 87% 30.01 in 10.0 mi NNW 3.5 mph - N/A   Scattered Clouds
11:54 PM 75.0 °F - 70.0 °F 84% 29.99 in 10.0 mi Calm Calm - N/A   Mostly Cloudy